| time (UTC) | temp F | wind direction | speed knots | gust knots | rain 1hr in | rain 24hr in | rain mn in | humidity % | barometer mb |
| 20260507054105 | 57 | 282 | 0.0 | 0.0 | 0.00 | 0.00 | 0.00 | 82 | 1020.5 |
| 20260507053600 | 57 | 282 | 0.0 | 0.0 | 0.00 | 0.00 | 0.00 | 82 | 1020.6 |
| 20260507053101 | 57 | 282 | 0.0 | 0.0 | 0.00 | 0.00 | 0.00 | 82 | 1020.6 |
| 20260507052601 | 57 | 282 | 0.0 | 0.0 | 0.00 | 0.00 | 0.00 | 82 | 1020.5 |
| 20260507052100 | 57 | 282 | 0.0 | 0.0 | 0.00 | 0.00 | 0.00 | 82 | 1020.6 |
| 20260507051600 | 57 | 282 | 0.0 | 0.0 | 0.00 | 0.00 | 0.00 | 82 | 1020.6 |
| 20260507051102 | 57 | 282 | 0.0 | 0.0 | 0.00 | 0.00 | 0.00 | 81 | 1020.6 |
| 20260507050559 | 57 | 282 | 0.0 | 0.0 | 0.00 | 0.00 | 0.00 | 81 | 1020.7 |
| 20260507050100 | 57 | 282 | 0.0 | 0.0 | 0.00 | 0.00 | 0.00 | 81 | 1020.6 |
| 20260507045559 | 57 | 282 | 0.0 | 0.0 | 0.00 | 0.00 | 0.00 | 81 | 1020.7 |
| 20260507045059 | 57 | 282 | 0.0 | 0.0 | 0.00 | 0.00 | 0.00 | 81 | 1020.7 |
| 20260507044601 | 57 | 282 | 0.0 | 0.9 | 0.00 | 0.00 | 0.00 | 81 | 1020.7 |
| 20260507044058 | 57 | 282 | 0.0 | 3.5 | 0.00 | 0.00 | 0.00 | 81 | 1020.7 |
| 20260507043558 | 57 | 282 | 0.9 | 3.5 | 0.00 | 0.00 | 0.00 | 81 | 1020.7 |
| 20260507043058 | 57 | 249 | 0.0 | 0.0 | 0.00 | 0.00 | 0.00 | 81 | 1020.7 |
| 20260507042559 | 57 | 249 | 0.0 | 1.7 | 0.00 | 0.00 | 0.00 | 80 | 1020.7 |
| 20260507042101 | 58 | 249 | 0.0 | 1.7 | 0.00 | 0.00 | 0.00 | 80 | 1020.7 |
| 20260507041606 | 58 | 249 | 0.0 | 1.7 | 0.00 | 0.00 | 0.00 | 80 | 1020.7 |
| 20260507041058 | 58 | 249 | 0.0 | 1.7 | 0.00 | 0.00 | 0.00 | 80 | 1020.5 |
| 20260507040558 | 58 | 244 | 0.0 | 0.9 | 0.00 | 0.00 | 0.00 | 80 | 1020.5 |
| 20260507040106 | 58 | 244 | 0.0 | 1.7 | 0.00 | 0.00 | 0.00 | 79 | 1020.5 |
| 20260507035557 | 58 | 244 | 0.0 | 1.7 | 0.00 | 0.00 | 0.00 | 79 | 1020.4 |
| 20260507035058 | 58 | 242 | 0.0 | 2.6 | 0.00 | 0.00 | 0.00 | 79 | 1020.4 |
| 20260507034619 | 58 | 243 | 0.9 | 2.6 | 0.00 | 0.00 | 0.00 | 79 | 1020.2 |
| 20260507034057 | 59 | 240 | 0.9 | 3.5 | 0.00 | 0.00 | 0.00 | 79 | 1020.2 |
| 20260507033557 | 59 | 238 | 0.9 | 3.5 | 0.00 | 0.00 | 0.00 | 78 | 1020.2 |
| 20260507033106 | 59 | 261 | 1.7 | 2.6 | 0.00 | 0.00 | 0.00 | 78 | 1020.1 |
| 20260507032557 | 59 | 247 | 0.9 | 3.5 | 0.00 | 0.00 | 0.00 | 78 | 1020.1 |
| 20260507032056 | 59 | 243 | 1.7 | 3.5 | 0.00 | 0.00 | 0.00 | 78 | 1020.1 |
| 20260507031556 | 60 | 246 | 0.9 | 3.5 | 0.00 | 0.00 | 0.00 | 78 | 1020.0 |
| 20260507031057 | 60 | 246 | 1.7 | 3.5 | 0.00 | 0.00 | 0.00 | 77 | 1020.0 |
| 20260507030556 | 60 | 251 | 1.7 | 4.3 | 0.00 | 0.00 | 0.00 | 76 | 1019.9 |
| 20260507025555 | 61 | 242 | 1.7 | 3.5 | 0.00 | 0.00 | 0.00 | 75 | 1019.8 |
| 20260507025055 | 61 | 254 | 1.7 | 7.0 | 0.00 | 0.00 | 0.00 | 74 | 1019.9 |
| 20260507024603 | 62 | 236 | 2.6 | 7.0 | 0.00 | 0.00 | 0.00 | 74 | 1019.7 |
| 20260507024055 | 62 | 267 | 1.7 | 3.5 | 0.00 | 0.00 | 0.00 | 73 | 1019.7 |
| 20260507023554 | 63 | 267 | 0.9 | 3.5 | 0.00 | 0.00 | 0.00 | 73 | 1019.6 |
| 20260507023053 | 63 | 256 | 0.9 | 3.5 | 0.00 | 0.00 | 0.00 | 72 | 1019.6 |
| 20260507022553 | 63 | 239 | 0.9 | 3.5 | 0.00 | 0.00 | 0.00 | 72 | 1019.6 |
| 20260507022054 | 63 | 286 | 1.7 | 4.3 | 0.00 | 0.00 | 0.00 | 71 | 1019.5 |
| 20260507021601 | 64 | 286 | 1.7 | 4.3 | 0.00 | 0.00 | 0.00 | 71 | 1019.5 |
| 20260507021053 | 64 | 277 | 0.9 | 6.1 | 0.00 | 0.00 | 0.00 | 70 | 1019.5 |
| 20260507020553 | 64 | 236 | 1.7 | 6.1 | 0.00 | 0.00 | 0.00 | 68 | 1019.6 |
| 20260507020052 | 65 | 270 | 0.9 | 4.3 | 0.00 | 0.00 | 0.00 | 68 | 1019.4 |
| 20260507015551 | 65 | 244 | 1.7 | 4.3 | 0.00 | 0.00 | 0.00 | 68 | 1019.5 |
| 20260507015050 | 65 | 245 | 0.9 | 7.8 | 0.00 | 0.00 | 0.00 | 68 | 1019.6 |
| 20260507014552 | 65 | 279 | 1.7 | 7.8 | 0.00 | 0.00 | 0.00 | 68 | 1019.5 |
| 20260507014051 | 65 | 290 | 1.7 | 6.1 | 0.00 | 0.00 | 0.00 | 67 | 1019.5 |
| 20260507013549 | 65 | 271 | 1.7 | 7.8 | 0.00 | 0.00 | 0.00 | 67 | 1019.5 |
| 20260507013103 | 65 | 296 | 2.6 | 7.8 | 0.00 | 0.00 | 0.00 | 68 | 1019.5 |
| 20260507012550 | 66 | 233 | 2.6 | 6.1 | 0.00 | 0.00 | 0.00 | 67 | 1019.5 |
| 20260507012050 | 66 | 233 | 1.7 | 6.1 | 0.00 | 0.00 | 0.00 | 67 | 1019.5 |
| 20260507011550 | 66 | 205 | 1.7 | 3.5 | 0.00 | 0.00 | 0.00 | 65 | 1019.5 |
| 20260507011050 | 67 | 246 | 1.7 | 9.6 | 0.00 | 0.00 | 0.00 | 65 | 1019.5 |
| 20260507010549 | 67 | 277 | 2.6 | 9.6 | 0.00 | 0.00 | 0.00 | 65 | 1019.7 |
| 20260507010052 | 67 | 287 | 0.9 | 6.1 | 0.00 | 0.00 | 0.00 | 65 | 1019.6 |
| 20260507005551 | 67 | 234 | 2.6 | 6.1 | 0.00 | 0.00 | 0.00 | 65 | 1019.6 |
| 20260507005049 | 68 | 248 | 1.7 | 7.8 | 0.00 | 0.00 | 0.00 | 65 | 1019.6 |
| 20260507004548 | 68 | 286 | 2.6 | 7.8 | 0.00 | 0.00 | 0.00 | 63 | 1019.6 |
| 20260507004048 | 68 | 248 | 1.7 | 6.1 | 0.00 | 0.00 | 0.00 | 63 | 1019.6 |
| 20260507003548 | 68 | 271 | 1.7 | 7.0 | 0.00 | 0.00 | 0.00 | 63 | 1019.5 |
| 20260507003046 | 68 | 288 | 0.9 | 7.0 | 0.00 | 0.00 | 0.00 | 64 | 1019.5 |
| 20260507002546 | 68 | 278 | 2.6 | 7.8 | 0.00 | 0.00 | 0.00 | 63 | 1019.5 |
| 20260507002047 | 68 | 299 | 2.6 | 7.8 | 0.00 | 0.00 | 0.00 | 63 | 1019.6 |
| 20260507001606 | 68 | 289 | 2.6 | 7.0 | 0.00 | 0.00 | 0.00 | 64 | 1019.7 |
| 20260507001045 | 68 | 271 | 1.7 | 7.0 | 0.00 | 0.00 | 0.00 | 63 | 1019.5 |
| 20260507000545 | 67 | 271 | 2.6 | 6.1 | 0.00 | 0.00 | 0.00 | 65 | 1019.6 |
| 20260507000044 | 67 | 244 | 1.7 | 7.8 | 0.00 | 0.00 | 0.00 | 64 | 1019.6 |
| 20260506235543 | 68 | 233 | 2.6 | 7.8 | 0.00 | 0.00 | 0.00 | 62 | 1019.6 |
| 20260506235043 | 68 | 278 | 3.5 | 8.7 | 0.00 | 0.00 | 0.00 | 62 | 1019.7 |
| 20260506234552 | 68 | 292 | 2.6 | 8.7 | 0.00 | 0.00 | 0.00 | 63 | 1019.7 |
| 20260506234042 | 68 | 281 | 3.5 | 7.8 | 0.00 | 0.00 | 0.00 | 62 | 1019.8 |
| 20260506233542 | 69 | 293 | 3.5 | 7.8 | 0.00 | 0.00 | 0.00 | 61 | 1019.8 |
| 20260506233041 | 68 | 283 | 3.5 | 7.8 | 0.00 | 0.00 | 0.00 | 62 | 1019.8 |
| 20260506232540 | 68 | 246 | 1.7 | 7.8 | 0.00 | 0.00 | 0.00 | 63 | 1019.7 |
| 20260506232040 | 68 | 262 | 1.7 | 7.8 | 0.00 | 0.00 | 0.00 | 63 | 1019.7 |
| 20260506231539 | 68 | 286 | 4.3 | 7.8 | 0.00 | 0.00 | 0.00 | 62 | 1019.9 |
| 20260506231039 | 68 | 269 | 1.7 | 7.0 | 0.00 | 0.00 | 0.00 | 65 | 1019.8 |
| 20260506230538 | 68 | 263 | 2.6 | 8.7 | 0.00 | 0.00 | 0.00 | 63 | 1020.0 |
| 20260506230036 | 68 | 294 | 3.5 | 8.7 | 0.00 | 0.00 | 0.00 | 63 | 1020.0 |
| 20260506225536 | 68 | 240 | 3.5 | 7.0 | 0.00 | 0.00 | 0.00 | 64 | 1020.1 |
| 20260506225038 | 68 | 240 | 2.6 | 7.8 | 0.00 | 0.00 | 0.00 | 63 | 1020.1 |
| 20260506224542 | 68 | 296 | 2.6 | 7.8 | 0.00 | 0.00 | 0.00 | 63 | 1020.2 |
| 20260506224034 | 68 | 292 | 3.5 | 8.7 | 0.00 | 0.00 | 0.00 | 63 | 1020.2 |
| 20260506223534 | 67 | 243 | 2.6 | 9.6 | 0.00 | 0.00 | 0.00 | 64 | 1020.3 |
| 20260506223034 | 67 | 248 | 2.6 | 9.6 | 0.00 | 0.00 | 0.00 | 62 | 1020.4 |
| 20260506222536 | 68 | 298 | 2.6 | 7.0 | 0.00 | 0.00 | 0.00 | 63 | 1020.4 |
| 20260506222034 | 68 | 282 | 1.7 | 7.8 | 0.00 | 0.00 | 0.00 | 64 | 1020.4 |
| 20260506221532 | 68 | 288 | 4.3 | 7.8 | 0.00 | 0.00 | 0.00 | 64 | 1020.5 |
| 20260506221032 | 67 | 278 | 1.7 | 7.0 | 0.00 | 0.00 | 0.00 | 66 | 1020.5 |
| 20260506220530 | 67 | 236 | 1.7 | 7.0 | 0.00 | 0.00 | 0.00 | 69 | 1020.5 |
| 20260506220035 | 67 | 280 | 2.6 | 7.8 | 0.00 | 0.00 | 0.00 | 65 | 1020.6 |
| 20260506215529 | 67 | 271 | 2.6 | 7.0 | 0.00 | 0.00 | 0.00 | 64 | 1020.6 |
| 20260506215029 | 67 | 281 | 2.6 | 7.8 | 0.00 | 0.00 | 0.00 | 64 | 1020.8 |
| 20260506214528 | 67 | 300 | 2.6 | 7.8 | 0.00 | 0.00 | 0.00 | 64 | 1020.8 |
| 20260506214030 | 67 | 229 | 2.6 | 8.7 | 0.00 | 0.00 | 0.00 | 64 | 1020.9 |
| 20260506213527 | 66 | 280 | 3.5 | 9.6 | 0.00 | 0.00 | 0.00 | 65 | 1021.0 |
| 20260506213027 | 67 | 271 | 3.5 | 9.6 | 0.00 | 0.00 | 0.00 | 65 | 1021.0 |
| 20260506212527 | 66 | 319 | 2.6 | 7.0 | 0.00 | 0.00 | 0.00 | 65 | 1021.1 |
| 20260506212027 | 66 | 279 | 2.6 | 10.4 | 0.00 | 0.00 | 0.00 | 66 | 1021.0 |
| 20260506211526 | 66 | 271 | 2.6 | 7.8 | 0.00 | 0.00 | 0.00 | 64 | 1021.1 |
| 20260506211026 | 67 | 240 | 3.5 | 6.1 | 0.00 | 0.00 | 0.00 | 63 | 1021.1 |
| 20260506210525 | 66 | 236 | 1.7 | 6.1 | 0.00 | 0.00 | 0.00 | 68 | 1021.2 |
| 20260506210025 | 66 | 244 | 2.6 | 6.1 | 0.00 | 0.00 | 0.00 | 62 | 1021.2 |
| 20260506205523 | 67 | 257 | 2.6 | 7.0 | 0.00 | 0.00 | 0.00 | 65 | 1021.3 |
| 20260506205022 | 67 | 246 | 0.9 | 5.2 | 0.00 | 0.00 | 0.00 | 68 | 1021.3 |
| 20260506204523 | 66 | 211 | 1.7 | 7.0 | 0.00 | 0.00 | 0.00 | 65 | 1021.3 |
| 20260506204020 | 66 | 275 | 2.6 | 7.0 | 0.00 | 0.00 | 0.00 | 65 | 1021.3 |
| 20260506203520 | 65 | 248 | 1.7 | 7.0 | 0.00 | 0.00 | 0.00 | 67 | 1021.4 |
| 20260506203020 | 65 | 240 | 2.6 | 7.0 | 0.00 | 0.00 | 0.00 | 66 | 1021.4 |
| 20260506202523 | 66 | 231 | 1.7 | 4.3 | 0.00 | 0.00 | 0.00 | 69 | 1021.4 |
| 20260506202020 | 65 | 260 | 0.9 | 5.2 | 0.00 | 0.00 | 0.00 | 69 | 1021.5 |
| 20260506201520 | 65 | 290 | 2.6 | 6.1 | 0.00 | 0.00 | 0.00 | 65 | 1021.5 |
| 20260506201021 | 65 | 234 | 2.6 | 6.1 | 0.00 | 0.00 | 0.00 | 70 | 1021.6 |
| 20260506200519 | 65 | 303 | 2.6 | 7.8 | 0.00 | 0.00 | 0.00 | 65 | 1021.7 |
| 20260506200019 | 65 | 271 | 3.5 | 7.8 | 0.00 | 0.00 | 0.00 | 66 | 1021.6 |
| 20260506195518 | 66 | 288 | 1.7 | 7.8 | 0.00 | 0.00 | 0.00 | 70 | 1021.7 |
| 20260506195017 | 65 | 259 | 2.6 | 7.0 | 0.00 | 0.00 | 0.00 | 69 | 1021.8 |
| 20260506194526 | 65 | 259 | 0.9 | 6.1 | 0.00 | 0.00 | 0.00 | 68 | 1021.7 |
| 20260506194018 | 65 | 291 | 0.9 | 6.1 | 0.00 | 0.00 | 0.00 | 67 | 1021.8 |
| 20260506193516 | 65 | 208 | 2.6 | 6.1 | 0.00 | 0.00 | 0.00 | 68 | 1021.8 |
| 20260506193014 | 64 | 290 | 1.7 | 7.0 | 0.00 | 0.00 | 0.00 | 69 | 1022.0 |
| 20260506192514 | 64 | 216 | 2.6 | 7.0 | 0.00 | 0.00 | 0.00 | 66 | 1022.0 |
| 20260506192013 | 64 | 290 | 0.9 | 7.0 | 0.00 | 0.00 | 0.00 | 68 | 1022.1 |
| 20260506191513 | 63 | 200 | 1.7 | 7.0 | 0.00 | 0.00 | 0.00 | 65 | 1022.1 |
| 20260506191012 | 63 | 244 | 1.7 | 8.7 | 0.00 | 0.00 | 0.00 | 66 | 1022.1 |
| 20260506190512 | 63 | 223 | 2.6 | 8.7 | 0.00 | 0.00 | 0.00 | 67 | 1022.4 |
| 20260506190011 | 63 | 287 | 1.7 | 7.0 | 0.00 | 0.00 | 0.00 | 70 | 1022.3 |
| 20260506185510 | 63 | 214 | 2.6 | 7.0 | 0.00 | 0.00 | 0.00 | 70 | 1022.3 |
| 20260506185009 | 63 | 224 | 0.9 | 4.3 | 0.00 | 0.00 | 0.00 | 71 | 1022.3 |
| 20260506184509 | 63 | 216 | 2.6 | 7.8 | 0.00 | 0.00 | 0.00 | 68 | 1022.3 |
| 20260506184008 | 62 | 236 | 4.3 | 7.8 | 0.00 | 0.00 | 0.00 | 68 | 1022.2 |
| 20260506183508 | 62 | 217 | 0.9 | 6.1 | 0.00 | 0.00 | 0.00 | 70 | 1022.3 |
| 20260506183008 | 62 | 244 | 2.6 | 7.0 | 0.00 | 0.00 | 0.00 | 67 | 1022.2 |
| 20260506182506 | 62 | 289 | 1.7 | 7.0 | 0.00 | 0.00 | 0.00 | 65 | 1022.2 |
| 20260506182006 | 62 | 281 | 1.7 | 5.2 | 0.00 | 0.00 | 0.00 | 66 | 1022.4 |
| 20260506181506 | 62 | 209 | 1.7 | 5.2 | 0.00 | 0.00 | 0.00 | 64 | 1022.3 |
| 20260506181005 | 62 | 296 | 1.7 | 4.3 | 0.00 | 0.00 | 0.00 | 68 | 1022.2 |
| 20260506180505 | 62 | 269 | 1.7 | 4.3 | 0.00 | 0.00 | 0.00 | 68 | 1022.2 |
| 20260506180005 | 63 | 272 | 1.7 | 5.2 | 0.00 | 0.00 | 0.00 | 65 | 1022.2 |
| 20260506175505 | 63 | 291 | 0.9 | 5.2 | 0.00 | 0.00 | 0.00 | 65 | 1022.3 |
| 20260506175004 | 62 | 321 | 1.7 | 4.3 | 0.00 | 0.00 | 0.00 | 65 | 1022.3 |
| 20260506174502 | 62 | 239 | 0.0 | 2.6 | 0.00 | 0.00 | 0.00 | 67 | 1022.2 |
| 20260506174002 | 62 | 244 | 0.9 | 3.5 | 0.00 | 0.00 | 0.00 | 65 | 1022.2 |
| 20260506173504 | 62 | 301 | 0.9 | 3.5 | 0.00 | 0.00 | 0.00 | 68 | 1022.3 |
| 20260506173001 | 62 | 295 | 0.0 | 2.6 | 0.00 | 0.00 | 0.00 | 70 | 1022.2 |
| 20260506172600 | 62 | 290 | 0.9 | 2.6 | 0.00 | 0.00 | 0.00 | 68 | 1022.3 |
| 20260506172100 | 62 | 313 | 0.9 | 2.6 | 0.00 | 0.00 | 0.00 | 69 | 1022.2 |
| 20260506171608 | 62 | 19 | 0.0 | 2.6 | 0.00 | 0.00 | 0.00 | 67 | 1022.2 |
| 20260506171059 | 61 | 28 | 0.9 | 3.5 | 0.00 | 0.00 | 0.00 | 69 | 1022.2 |
| 20260506170558 | 62 | 38 | 1.7 | 4.3 | 0.00 | 0.00 | 0.00 | 66 | 1022.4 |
| 20260506170107 | 62 | 15 | 0.9 | 4.3 | 0.00 | 0.00 | 0.00 | 70 | 1022.4 |
| 20260506165558 | 61 | 25 | 0.9 | 2.6 | 0.00 | 0.01 | 0.00 | 72 | 1022.4 |
| 20260506165056 | 61 | 302 | 0.9 | 2.6 | 0.00 | 0.01 | 0.00 | 71 | 1022.4 |
| 20260506164553 | 60 | 59 | 0.0 | 3.5 | 0.00 | 0.01 | 0.00 | 71 | 1022.4 |
| 20260506164051 | 60 | 78 | 0.9 | 4.3 | 0.00 | 0.01 | 0.00 | 72 | 1022.4 |
| 20260506163550 | 60 | 14 | 0.9 | 4.3 | 0.00 | 0.01 | 0.00 | 74 | 1022.4 |
| 20260506163049 | 59 | 71 | 0.0 | 4.3 | 0.00 | 0.01 | 0.00 | 71 | 1022.4 |
| 20260506162547 | 59 | 81 | 0.9 | 5.2 | 0.00 | 0.01 | 0.00 | 75 | 1022.4 |
| 20260506162048 | 59 | 20 | 0.9 | 4.3 | 0.00 | 0.01 | 0.00 | 73 | 1022.3 |
| 20260506161546 | 59 | 77 | 0.9 | 4.3 | 0.00 | 0.01 | 0.00 | 74 | 1022.3 |
| 20260506161044 | 59 | 32 | 1.7 | 4.3 | 0.00 | 0.01 | 0.00 | 75 | 1022.4 |
| 20260506160543 | 58 | 29 | 1.7 | 3.5 | 0.00 | 0.01 | 0.00 | 75 | 1022.4 |
| 20260506160048 | 57 | 40 | 0.0 | 1.7 | 0.00 | 0.01 | 0.00 | 73 | 1022.4 |
| 20260506155540 | 58 | 17 | 0.0 | 3.5 | 0.00 | 0.01 | 0.00 | 75 | 1022.5 |
| 20260506155039 | 58 | 29 | 0.9 | 3.5 | 0.00 | 0.01 | 0.00 | 76 | 1022.5 |
| 20260506154538 | 57 | 28 | 1.7 | 3.5 | 0.00 | 0.01 | 0.00 | 76 | 1022.5 |
| 20260506154036 | 57 | 65 | 0.9 | 2.6 | 0.00 | 0.01 | 0.00 | 77 | 1022.5 |
| 20260506153535 | 56 | 60 | 0.0 | 3.5 | 0.00 | 0.01 | 0.00 | 75 | 1022.6 |
| 20260506153033 | 56 | 61 | 1.7 | 5.2 | 0.00 | 0.01 | 0.00 | 76 | 1022.5 |
| 20260506152532 | 56 | 74 | 0.9 | 6.1 | 0.00 | 0.01 | 0.00 | 77 | 1022.6 |
| 20260506152030 | 56 | 92 | 1.7 | 4.3 | 0.00 | 0.01 | 0.00 | 79 | 1022.6 |
| 20260506151530 | 55 | 60 | 0.9 | 4.3 | 0.00 | 0.01 | 0.00 | 75 | 1022.6 |
| 20260506151028 | 55 | 62 | 1.7 | 3.5 | 0.00 | 0.01 | 0.00 | 77 | 1022.7 |
| 20260506150527 | 55 | 62 | 1.7 | 3.5 | 0.00 | 0.01 | 0.00 | 79 | 1022.6 |
| 20260506150025 | 55 | 71 | 0.9 | 3.5 | 0.00 | 0.01 | 0.00 | 78 | 1022.6 |
| 20260506145522 | 54 | 98 | 1.7 | 3.5 | 0.00 | 0.02 | 0.00 | 79 | 1022.6 |
| 20260506145021 | 54 | 74 | 0.9 | 3.5 | 0.00 | 0.02 | 0.00 | 81 | 1022.7 |
| 20260506144519 | 53 | 53 | 0.9 | 3.5 | 0.00 | 0.02 | 0.00 | 81 | 1022.7 |
| 20260506144018 | 53 | 96 | 0.9 | 3.5 | 0.00 | 0.02 | 0.00 | 82 | 1022.7 |
| 20260506143517 | 53 | 38 | 0.9 | 3.5 | 0.00 | 0.02 | 0.00 | 83 | 1022.5 |
| 20260506143015 | 53 | 85 | 1.7 | 3.5 | 0.00 | 0.02 | 0.00 | 84 | 1022.5 |
| 20260506142513 | 52 | 63 | 0.9 | 3.5 | 0.00 | 0.02 | 0.00 | 85 | 1022.5 |
| 20260506142013 | 52 | 52 | 0.9 | 2.6 | 0.00 | 0.02 | 0.00 | 86 | 1022.3 |
| 20260506141511 | 51 | 82 | 0.9 | 2.6 | 0.00 | 0.02 | 0.00 | 88 | 1022.2 |
| 20260506141009 | 51 | 61 | 0.9 | 3.5 | 0.00 | 0.02 | 0.00 | 88 | 1022.2 |
| 20260506140508 | 51 | 71 | 0.9 | 2.6 | 0.00 | 0.02 | 0.00 | 88 | 1022.2 |
| 20260506140005 | 50 | 73 | 1.7 | 3.5 | 0.00 | 0.03 | 0.00 | 89 | 1022.1 |
| 20260506135504 | 50 | 72 | 0.9 | 3.5 | 0.00 | 0.03 | 0.00 | 89 | 1022.0 |
| 20260506135002 | 50 | 76 | 1.7 | 3.5 | 0.00 | 0.03 | 0.00 | 89 | 1022.0 |
| 20260506134502 | 49 | 74 | 0.9 | 3.5 | 0.00 | 0.03 | 0.00 | 90 | 1022.0 |
| 20260506134100 | 49 | 74 | 1.7 | 2.6 | 0.00 | 0.03 | 0.00 | 90 | 1021.9 |
| 20260506133559 | 49 | 74 | 0.9 | 3.5 | 0.00 | 0.03 | 0.00 | 89 | 1021.9 |
| 20260506133113 | 49 | 76 | 1.7 | 3.5 | 0.00 | 0.03 | 0.00 | 89 | 1021.9 |
| 20260506132557 | 49 | 77 | 1.7 | 3.5 | 0.00 | 0.03 | 0.00 | 89 | 1022.0 |
| 20260506132056 | 49 | 61 | 0.9 | 2.6 | 0.00 | 0.03 | 0.00 | 89 | 1021.9 |
| 20260506131603 | 49 | 54 | 1.7 | 3.5 | 0.00 | 0.03 | 0.00 | 89 | 1021.9 |
| 20260506131056 | 49 | 53 | 1.7 | 3.5 | 0.00 | 0.03 | 0.00 | 89 | 1021.9 |
| 20260506130555 | 49 | 55 | 1.7 | 3.5 | 0.00 | 0.03 | 0.00 | 89 | 1021.8 |
| 20260506130057 | 49 | 76 | 1.7 | 2.6 | 0.00 | 0.03 | 0.00 | 89 | 1021.8 |
| 20260506125553 | 49 | 80 | 0.9 | 2.6 | 0.00 | 0.03 | 0.00 | 89 | 1021.8 |
| 20260506125053 | 49 | 80 | 1.7 | 3.5 | 0.00 | 0.03 | 0.00 | 89 | 1021.7 |
| 20260506124559 | 49 | 80 | 1.7 | 3.5 | 0.00 | 0.03 | 0.00 | 89 | 1021.7 |
| 20260506124053 | 49 | 83 | 1.7 | 2.6 | 0.00 | 0.03 | 0.00 | 89 | 1021.7 |
| 20260506123553 | 49 | 83 | 0.9 | 2.6 | 0.00 | 0.03 | 0.00 | 89 | 1021.5 |
| 20260506123053 | 49 | 83 | 0.9 | 3.5 | 0.00 | 0.03 | 0.00 | 89 | 1021.7 |
| 20260506122553 | 49 | 84 | 0.9 | 3.5 | 0.00 | 0.03 | 0.00 | 89 | 1021.6 |
| 20260506122052 | 49 | 82 | 1.7 | 3.5 | 0.00 | 0.03 | 0.00 | 89 | 1021.5 |
| 20260506121553 | 49 | 82 | 1.7 | 4.3 | 0.00 | 0.03 | 0.00 | 90 | 1021.6 |
| 20260506121052 | 49 | 82 | 1.7 | 3.5 | 0.00 | 0.03 | 0.00 | 90 | 1021.4 |
| 20260506120556 | 49 | 83 | 1.7 | 2.6 | 0.00 | 0.03 | 0.00 | 90 | 1021.5 |
| 20260506120052 | 49 | 83 | 0.9 | 5.2 | 0.00 | 0.03 | 0.00 | 91 | 1021.5 |
| 20260506115552 | 49 | 83 | 1.7 | 5.2 | 0.00 | 0.04 | 0.00 | 91 | 1021.4 |
| 20260506115051 | 49 | 84 | 1.7 | 3.5 | 0.00 | 0.04 | 0.00 | 91 | 1021.7 |
| 20260506114553 | 49 | 90 | 1.7 | 3.5 | 0.00 | 0.04 | 0.00 | 91 | 1021.5 |
| 20260506114051 | 49 | 86 | 1.7 | 3.5 | 0.00 | 0.04 | 0.00 | 91 | 1021.4 |
| 20260506113552 | 49 | 87 | 1.7 | 3.5 | 0.00 | 0.04 | 0.00 | 92 | 1021.5 |
| 20260506113051 | 49 | 90 | 1.7 | 3.5 | 0.00 | 0.04 | 0.00 | 92 | 1021.5 |
| 20260506112555 | 48 | 84 | 1.7 | 3.5 | 0.00 | 0.04 | 0.00 | 92 | 1021.4 |
| 20260506112050 | 48 | 84 | 1.7 | 3.5 | 0.00 | 0.04 | 0.00 | 92 | 1021.5 |
| 20260506111550 | 48 | 86 | 1.7 | 3.5 | 0.00 | 0.04 | 0.00 | 92 | 1021.4 |
| 20260506111049 | 48 | 86 | 1.7 | 3.5 | 0.00 | 0.04 | 0.00 | 92 | 1021.4 |
| 20260506110551 | 48 | 86 | 1.7 | 3.5 | 0.00 | 0.04 | 0.00 | 92 | 1021.4 |
| 20260506110049 | 48 | 99 | 0.9 | 2.6 | 0.00 | 0.04 | 0.00 | 92 | 1021.3 |
| 20260506105549 | 48 | 100 | 1.7 | 2.6 | 0.00 | 0.05 | 0.00 | 92 | 1021.3 |
| 20260506105051 | 48 | 107 | 1.7 | 2.6 | 0.00 | 0.05 | 0.00 | 92 | 1021.3 |
| 20260506104550 | 48 | 159 | 0.9 | 2.6 | 0.00 | 0.05 | 0.00 | 92 | 1021.4 |
| 20260506104048 | 48 | 198 | 0.9 | 1.7 | 0.00 | 0.05 | 0.00 | 92 | 1021.3 |
| 20260506103547 | 48 | 198 | 0.0 | 1.7 | 0.00 | 0.05 | 0.00 | 92 | 1021.4 |
| 20260506103047 | 48 | 198 | 0.0 | 2.6 | 0.00 | 0.05 | 0.00 | 92 | 1021.4 |
| 20260506102547 | 48 | 198 | 0.9 | 2.6 | 0.00 | 0.05 | 0.00 | 92 | 1021.4 |
| 20260506102047 | 48 | 199 | 0.9 | 2.6 | 0.00 | 0.05 | 0.00 | 92 | 1021.3 |
| 20260506101547 | 48 | 200 | 0.9 | 2.6 | 0.00 | 0.05 | 0.00 | 92 | 1021.2 |
| 20260506101046 | 48 | 200 | 0.9 | 2.6 | 0.00 | 0.05 | 0.00 | 92 | 1021.2 |
| 20260506100547 | 48 | 200 | 0.9 | 3.5 | 0.00 | 0.05 | 0.00 | 92 | 1021.2 |
| 20260506100046 | 48 | 202 | 0.9 | 3.5 | 0.00 | 0.05 | 0.00 | 92 | 1021.1 |
| 20260506095547 | 48 | 203 | 0.9 | 1.7 | 0.00 | 0.07 | 0.00 | 92 | 1021.2 |
| 20260506095045 | 48 | 267 | 0.0 | 0.9 | 0.00 | 0.07 | 0.00 | 92 | 1021.1 |
| 20260506094601 | 48 | 267 | 0.0 | 0.0 | 0.00 | 0.07 | 0.00 | 92 | 1021.0 |
| 20260506094045 | 48 | 267 | 0.0 | 0.9 | 0.00 | 0.07 | 0.00 | 92 | 1021.0 |
| 20260506093544 | 48 | 267 | 0.0 | 1.7 | 0.00 | 0.07 | 0.00 | 92 | 1021.0 |
| 20260506093044 | 48 | 267 | 0.0 | 1.7 | 0.00 | 0.07 | 0.00 | 92 | 1020.9 |
| 20260506092545 | 48 | 267 | 0.0 | 1.7 | 0.00 | 0.07 | 0.00 | 92 | 1020.9 |
| 20260506092045 | 48 | 267 | 0.0 | 2.6 | 0.00 | 0.07 | 0.00 | 92 | 1020.8 |
| 20260506091546 | 48 | 267 | 0.0 | 2.6 | 0.00 | 0.07 | 0.00 | 92 | 1020.9 |
| 20260506091044 | 48 | 256 | 0.9 | 2.6 | 0.00 | 0.07 | 0.00 | 91 | 1020.8 |
| 20260506090543 | 48 | 254 | 0.9 | 2.6 | 0.00 | 0.07 | 0.00 | 91 | 1020.9 |
| 20260506090043 | 48 | 322 | 0.9 | 2.6 | 0.00 | 0.07 | 0.00 | 91 | 1020.7 |
| 20260506085542 | 48 | 322 | 0.9 | 2.6 | 0.00 | 0.10 | 0.00 | 91 | 1020.7 |
| 20260506085043 | 48 | 323 | 0.0 | 2.6 | 0.00 | 0.10 | 0.00 | 91 | 1020.6 |
| 20260506084544 | 48 | 292 | 0.9 | 2.6 | 0.00 | 0.10 | 0.00 | 91 | 1020.5 |
| 20260506084041 | 48 | 290 | 0.9 | 2.6 | 0.00 | 0.10 | 0.00 | 91 | 1020.5 |
| 20260506083543 | 48 | 289 | 0.9 | 3.5 | 0.00 | 0.10 | 0.00 | 91 | 1020.3 |
| 20260506083041 | 48 | 289 | 1.7 | 3.5 | 0.00 | 0.10 | 0.00 | 91 | 1020.3 |
| 20260506082539 | 48 | 252 | 0.9 | 2.6 | 0.00 | 0.10 | 0.00 | 91 | 1020.4 |
| 20260506082039 | 48 | 186 | 0.0 | 1.7 | 0.00 | 0.10 | 0.00 | 90 | 1020.4 |
| 20260506081539 | 48 | 186 | 0.0 | 2.6 | 0.00 | 0.10 | 0.00 | 90 | 1020.5 |
| 20260506081038 | 49 | 186 | 0.0 | 2.6 | 0.00 | 0.10 | 0.00 | 90 | 1020.5 |
| 20260506080537 | 49 | 181 | 0.0 | 1.7 | 0.00 | 0.10 | 0.00 | 91 | 1020.7 |
| 20260506073032 | 50 | 111 | 0.9 | 3.5 | 0.00 | 0.13 | 0.00 | 90 | 1021.7 |
| 20260506072534 | 50 | 35 | 1.7 | 3.5 | 0.00 | 0.13 | 0.00 | 90 | 1021.9 |
| 20260506072030 | 50 | 77 | 0.9 | 1.7 | 0.00 | 0.13 | 0.00 | 89 | 1021.4 |
| 20260506071531 | 50 | 77 | 0.0 | 1.7 | 0.00 | 0.13 | 0.00 | 89 | 1021.2 |
| 20260506071027 | 50 | 77 | 0.9 | 1.7 | 0.00 | 0.13 | 0.00 | 89 | 1021.1 |
| 20260506070526 | 49 | 91 | 0.0 | 1.7 | 0.00 | 0.13 | 0.00 | 90 | 1021.0 |
| 20260506062023 | 49 | 36 | 0.9 | 2.6 | 0.00 | 0.15 | 0.13 | 90 | 1020.4 |
| 20260506061523 | 49 | 325 | 0.0 | 1.7 | 0.00 | 0.15 | 0.13 | 89 | 1020.4 |
| 20260506061024 | 49 | 283 | 0.0 | 0.9 | 0.00 | 0.15 | 0.13 | 90 | 1020.4 |
| 20260506060527 | 49 | 283 | 0.0 | 0.9 | 0.00 | 0.15 | 0.13 | 90 | 1020.3 |